Monday, February 25, 2013

Avoca, PA
on Saturday, December 8, 2012

Saturday
Previous Day Next Day
Daily Summary
 ActualAverageRecord
Temperature
Mean Temperature °F 33°F  
Max Temperature 48°F 40°F 61°F (1980)
Min Temperature 37°F 26°F 6°F (1906)
Degree Days
Heating Degree Days 22 32  
Month to date heating degree days 177 245  
Since 1 July heating degree days 1404 1558  
Cooling Degree Days 0 0  
Month to date cooling degree days 0 0  
Year to date cooling degree days 864 580  
Moisture
Dew Point 40°F   
Average Humidity 93    
Maximum Humidity 100    
Minimum Humidity 86    
Precipitation
Precipitation 0.16 in 0.09 in 1.35 in (1963)
Month to date precipitation 0.64 0.79  
Year to date precipitation 34.81 36.37  
Wind
Wind Speed 2 mph   
Max Wind Speed 9 mph   
Max Gust Speed 12 mph   
Visibility 4 miles   
Events Fog , Rain   

Key: T is trace of precipitation, MM is missing value
Source: NWS Daily Summary
Time(EST)TemperatureDew PointHumidity Pressure Visibility Wind DirectionWind SpeedGust SpeedPrecipitationEvents Conditions
12:09 AM 37.4°F 35.6°F 93% 29.97 in 2.5 miles Calm Calm - 0.01 in Rain Light Rain
12:17 AM 37.4°F 35.6°F 93% 29.97 in 2.5 miles Calm Calm - 0.01 in Rain Light Rain
12:54 AM 37.9°F 36.0°F 93% 29.97 in 3.0 miles NE 3.5 mph - 0.03 in Rain Light Rain
1:11 AM 37.4°F 35.6°F 93% 29.96 in 2.5 miles Calm Calm - 0.01 in Rain Light Rain
1:54 AM 37.9°F 36.0°F 93% 29.96 in 2.5 miles Calm Calm - 0.05 in Rain Light Rain
2:01 AM 37.4°F 35.6°F 93% 29.94 in 4.0 miles ESE 3.5 mph - 0.00 in Rain Rain
2:27 AM 37.4°F 35.6°F 93% 29.92 in 2.0 miles NE 5.8 mph - 0.02 in Rain Light Rain
2:43 AM 37.4°F 37.4°F 100% 29.92 in 1.8 miles NE 4.6 mph - 0.03 in Rain Light Rain
2:52 AM 37.4°F 37.4°F 100% 29.92 in 2.5 miles NNE 5.8 mph - 0.03 in Rain Light Rain
2:54 AM 37.9°F 37.0°F 97% 29.94 in 2.5 miles NNE 5.8 mph - 0.03 in Rain Light Rain
3:09 AM 37.4°F 37.4°F 100% 29.91 in 4.0 miles NE 4.6 mph - 0.00 in Rain Light Rain
3:54 AM 39.0°F 37.0°F 93% 29.92 in 4.0 miles Calm Calm - 0.00 in Rain Light Rain
4:06 AM 39.2°F 37.4°F 93% 29.90 in 5.0 miles Calm Calm - 0.01 in Rain Light Rain
4:21 AM 39.2°F 37.4°F 93% 29.90 in 1.8 miles Calm Calm - 0.01 in Rain Light Rain
4:31 AM 37.4°F 37.4°F 100% 29.90 in 1.8 miles Calm Calm - 0.02 in Rain Light Rain
4:38 AM 37.4°F 37.4°F 100% 29.90 in 2.0 miles Calm Calm - 0.02 in Rain Light Rain
4:54 AM 39.0°F 37.9°F 96% 29.91 in 2.5 miles Calm Calm - 0.03 in Rain Light Rain
5:07 AM 39.2°F 37.4°F 93% 29.90 in 3.0 miles Calm Calm - 0.00 in   Overcast
5:19 AM 39.2°F 37.4°F 93% 29.89 in 2.5 miles Calm Calm - 0.00 in   Overcast
5:35 AM 39.2°F 37.4°F 93% 29.89 in 3.0 miles Calm Calm - 0.00 in   Overcast
5:49 AM 39.2°F 37.4°F 93% 29.90 in 5.0 miles Calm Calm - 0.00 in   Overcast
5:54 AM 39.2°F 37.4°F 93% 29.89 in 3.0 miles Calm Calm - N/A Rain Light Rain
6:17 AM 39.2°F 37.4°F 93% 29.89 in 5.0 miles Calm Calm - 0.00 in Rain Light Rain
6:54 AM 39.0°F 37.9°F 96% 29.90 in 6.0 miles Calm Calm - 0.02 in   Overcast
7:26 AM 39.2°F 37.4°F 93% 29.88 in 4.0 miles NNW 4.6 mph - N/A   Overcast
7:28 AM 39.2°F 37.4°F 93% 29.88 in 1.8 miles NNW 4.6 mph - N/A   Overcast
7:34 AM 39.2°F 37.4°F 93% 29.88 in 0.2 miles Calm Calm - N/A Fog Fog
7:37 AM 39.2°F 37.4°F 93% 29.88 in 0.2 miles Calm Calm - N/A Fog Fog
7:45 AM 39.2°F 37.4°F 93% 29.88 in 0.5 miles Calm Calm - N/A Fog Fog
7:54 AM 39.0°F 37.9°F 96% 29.90 in 0.8 miles Calm Calm - N/A   Mist
8:05 AM 39.2°F 37.4°F 93% 29.89 in 0.2 miles Calm Calm - N/A Fog Fog
8:15 AM 39.2°F 37.4°F 93% 29.90 in 0.2 miles Calm Calm - N/A Fog Fog
8:21 AM 39.2°F 37.4°F 93% 29.90 in 0.5 miles Calm Calm - N/A Fog Fog
8:37 AM 39.2°F 37.4°F 93% 29.90 in 0.5 miles Calm Calm - N/A Fog Fog
8:50 AM 39.2°F 39.2°F 100% 29.91 in 1.5 miles Calm Calm - N/A   Overcast
8:54 AM 39.9°F 39.0°F 97% 29.92 in 1.5 miles Calm Calm - N/A   Overcast
9:07 AM 39.2°F 39.2°F 100% 29.90 in 2.5 miles Calm Calm - N/A   Overcast
9:29 AM 41.0°F 39.2°F 93% 29.90 in 3.0 miles Calm Calm - N/A   Overcast
9:54 AM 42.1°F 39.9°F 92% 29.91 in 5.0 miles Calm Calm - N/A   Overcast
10:36 AM 42.8°F 39.2°F 87% 29.90 in 4.0 miles Calm Calm - N/A   Overcast
10:54 AM 42.1°F 39.9°F 92% 29.91 in 4.0 miles West 3.5 mph - N/A   Overcast
11:06 AM 42.8°F 41.0°F 93% 29.88 in 4.0 miles Calm Calm - N/A   Overcast
11:44 AM 44.6°F 42.8°F 93% 29.86 in 5.0 miles Calm Calm - N/A   Overcast
11:54 AM 45.0°F 41.0°F 86% 29.86 in 5.0 miles Calm Calm - N/A   Mostly Cloudy
12:02 PM 44.6°F 42.8°F 93% 29.85 in 5.0 miles WNW 3.5 mph - N/A   Overcast
12:13 PM 44.6°F 41.0°F 87% 29.86 in 5.0 miles NW 4.6 mph - N/A   Overcast
12:54 PM 46.0°F 43.0°F 89% 29.86 in 6.0 miles SW 4.6 mph - N/A   Overcast
1:54 PM 46.9°F 43.0°F 86% 29.86 in 7.0 miles SW 8.1 mph - N/A   Overcast
2:52 PM 48.2°F 44.6°F 87% 29.86 in 6.0 miles West 8.1 mph - N/A   Overcast
2:54 PM 48.0°F 44.1°F 86% 29.87 in 6.0 miles West 8.1 mph - N/A   Overcast
3:17 PM 46.4°F 44.6°F 93% 29.87 in 6.0 miles WSW 5.8 mph - N/A   Mostly Cloudy
3:29 PM 46.4°F 44.6°F 93% 29.87 in 5.0 miles WSW 3.5 mph - N/A   Overcast
3:46 PM 46.4°F 44.6°F 93% 29.88 in 5.0 miles SW 3.5 mph - N/A   Overcast
3:54 PM 46.9°F 44.1°F 90% 29.88 in 5.0 miles South 3.5 mph - N/A   Overcast
4:54 PM 46.0°F 43.0°F 89% 29.89 in 6.0 miles SSW 3.5 mph - N/A   Overcast
5:05 PM 46.4°F 42.8°F 87% 29.89 in 6.0 miles SSW 3.5 mph - N/A   Overcast
5:54 PM 46.0°F 44.1°F 93% 29.91 in 5.0 miles Calm Calm - N/A   Overcast
6:54 PM 46.0°F 44.1°F 93% 29.93 in 6.0 miles SSW 3.5 mph - N/A   Overcast
7:54 PM 46.0°F 44.1°F 93% 29.95 in 5.0 miles WSW 3.5 mph - N/A   Overcast
8:45 PM 46.4°F 44.6°F 93% 29.95 in 5.0 miles SSW 3.5 mph - N/A   Overcast
8:54 PM 46.0°F 44.1°F 93% 29.97 in 4.0 miles Calm Calm - N/A   Overcast
9:54 PM 46.4°F 44.6°F 93% 29.98 in 5.0 miles SSW 4.6 mph - N/A   Overcast
10:54 PM 46.9°F 44.1°F 90% 30.01 in 5.0 miles SSW 4.6 mph - N/A   Overcast
11:43 PM 44.6°F 42.8°F 93% 30.02 in 2.5 miles North 3.5 mph - N/A   Overcast
11:52 PM 44.6°F 44.6°F 100% 30.02 in 1.8 miles SSW 3.5 mph - N/A   Overcast
11:54 PM 45.0°F 44.1°F 97% 30.03 in 2.0 miles South 3.5 mph - N/A   Overcast
Astronomy
Sunrise:07:16 AM (EST) Moon Rise:01:35 AM (EST)12/8
Sunset:04:33 PM (EST) Moon Set:01:04 PM (EST)12/8
Moon Phase
Dec. 08 Dec. 13 Dec. 20 Dec. 28 Jan. 04

Copyright © 2014 The Weather Underground, Inc.
8,